Погода в Агишбатое

Россия / Чеченская Республика     43°00′47″N   46°06′27″E
В апреле 2022 года жителям России запретили посещать сайт meteo.paraplan.net по решению Генеральной прокуратуры. Аудитория сайта уменьшилась в 10 раз. Владельцы сайта не видят смысла в поддержке погодного сервера в таких условиях. Сайт будет закрыт в октябре.
темп.,
°C
ветер,
м/с
пор.,
м/с
влажн.,
%
обл.,
%
осадки,
мм/ч
давл.,
гПа
погр.,
м
3 октября, пн
пн300:00+16ю444486 0.0 100469
03:00+17ю3445100 0.0 100465
06:00+16ю3350100 0.0 100539
09:00+19зсз4949100 0.0 10101090
12:00+17з4675100 0.3 1013806
15:00+15зюз1291100 1.4 1015176
18:00+14зсз1195100 0.9 101693
21:00+13з019576 1.0 101661
4 октября, вт
вт400:00+12ююв119743 0.0 101535
03:00+12з119765 0.0 101589
06:00+12юв119246 0.0 101437
09:00+17ссв217466 0.0 1014418
12:00+21с325898 0.0 1014863
15:00+21с325794 0.0 1014905
18:00+16ююз1179100 0.0 101711
21:00+14ююз1184100 0.0 101814
5 октября, ср
ср500:00+14ю228577 0.0 101922
03:00+13ююз118366 0.0 101912
06:00+13ююз1177100 0.0 102011
09:00+18ссз216651 0.0 1019542
12:00+21ссз425964 0.0 10191062
15:00+18зсз347299 0.0 1021801
18:00+16зюз1184100 0.1 102361
21:00+14сз2499100 1.3 1023342
6 октября, чт
чт600:00+13сз1297100 0.6 1023197
03:00+12зсз2598100 1.4 1025440
06:00+12зсз1298100 1.1 1025230
09:00+12ссз1197100 1.6 1025205
12:00+12ссз1296100 0.5 1025270
15:00+11ссз1297100 1.5 1024213
18:00+11ссз1297100 1.1 1026165
21:00+11с1198100 1.8 1026126
7 октября, пт
пт700:00+11с1198100 0.3 102695
03:00+11с1199100 1.5 1025126
06:00+11ссв1199100 1.4 1026109
09:00+11ссв1197100 1.8 1026136
12:00+12с119296 0.1 1025304
15:00+13ссв1187100 0.1 1023483
18:00+12зсз119393 0.0 102449
21:00+11зюз019454 0.0 102437